Weather History for KMHS - March, 2014

Change the Weather History Date:

Monday, March 10, 2014

  Actual Average Record
Temperature  
Mean Temperature 44 °F 42 °F  
Max Temperature 51 °F 53 °F 71 °F (2005)
Min Temperature 36 °F 30 °F 15 °F (1951)
Degree Days  
Heating Degree Days 21 24  
Month to date heating degree days 196 243  
Since 1 July heating degree days 3812 4218  
Cooling Degree Days 0 0  
Month to date cooling degree days 0 0  
Year to date cooling degree days 0 0  
Moisture  
Dew Point 33 °F    
Average Humidity 69    
Maximum Humidity 85    
Minimum Humidity 41    
Precipitation  
Precipitation 0.16 in 0.23 in 2.90 in (1995)
Month to date precipitation 2.42 2.42  
Year to date precipitation 8.46 16.71  
Sea Level Pressure  
Sea Level Pressure 30.19 in    
Wind  
Wind Speed 7 mph (NNW)    
Max Wind Speed 15 mph    
Max Gust Speed 25 mph    
Visibility 9 miles    
Events Rain    
T = Trace of Precipitation, MM = Missing Value Source: NWS Daily Summary

Daily Weather History Graph

Daily Weather History Graph

Search for Another Location

Airport or City:

Trip Planner

Search our weather history database for the weather conditions in past years. The results will help you decide how hot, cold, wet, or windy it might be!

Date:

Astronomy

Mar. 10, 2014 Rise Set
Actual Time 7:29 AM PDT 7:10 PM PDT
Civil Twilight 7:01 AM PDT 7:38 PM PDT
Nautical Twilight 6:29 AM PDT 8:10 PM PDT
Astronomical Twilight 5:57 AM PDT 8:42 PM PDT
Moon 1:56 PM PDT (3/10) 3:47 AM PDT (3/10)
Length of Visible Light 12h 36m
Length of Day
11h 41m
Waxing Gibbous, 71% of the Moon is Illuminated
Mar 10
Waxing Gibbous
Mar 16
Full
Mar 23
Last Quarter
Mar 30
New
Apr 7
First Quarter

Hourly Weather History & Observations

Time (PDT) Temp. Windchill Dew Point Humidity Pressure Visibility Wind Dir Wind Speed Gust Speed Precip Events Conditions
12:56 AM 45.0 °F - 42.1 °F 90% 30.08 in 10.0 mi Calm Calm - 0.01 in   Overcast
1:07 AM 45.0 °F - 42.1 °F 90% 30.03 in 10.0 mi Calm Calm - N/A   Overcast
1:14 AM 45.0 °F - 42.1 °F 90% 30.03 in 10.0 mi Calm Calm - N/A   Overcast
1:30 AM 45.0 °F - 42.1 °F 90% 30.02 in 9.0 mi Calm Calm - 0.00 in Rain Light Rain
1:56 AM 44.1 °F 41.5 °F 42.1 °F 93% 30.08 in 6.0 mi WNW 4.6 mph - 0.02 in Rain Light Rain
2:06 AM 44.1 °F - 42.1 °F 93% 30.03 in 6.0 mi Calm Calm - 0.00 in Rain Light Rain
2:20 AM 44.1 °F 40.1 °F 41.0 °F 89% 30.04 in 3.0 mi Variable 6.9 mph - 0.04 in Rain Heavy Rain
2:27 AM 44.1 °F 39.5 °F 39.9 °F 85% 30.04 in 4.0 mi North 8.1 mph - 0.06 in Rain Rain
2:32 AM 43.0 °F 38.8 °F 39.0 °F 86% 30.04 in 6.0 mi Variable 6.9 mph - 0.07 in Rain Light Rain
2:56 AM 43.0 °F 38.8 °F 37.0 °F 80% 30.10 in 7.0 mi Variable 6.9 mph - 0.10 in Rain Light Rain
3:26 AM 42.1 °F 36.6 °F 36.0 °F 79% 30.04 in 8.0 mi NNE 9.2 mph 24.2 mph 0.02 in Rain Light Rain
3:44 AM 42.1 °F - 37.0 °F 82% 30.04 in 10.0 mi North - - 0.03 in Rain Light Rain
3:56 AM 42.1 °F 39.2 °F 36.0 °F 79% 30.07 in 10.0 mi Variable 4.6 mph - 0.03 in Rain Light Rain
4:56 AM 41.0 °F 38.0 °F 37.0 °F 86% 30.08 in 10.0 mi WNW 4.6 mph - 0.01 in   Mostly Cloudy
5:56 AM 42.1 °F 38.4 °F 34.0 °F 73% 30.11 in 10.0 mi Variable 5.8 mph - N/A   Clear
6:56 AM 39.0 °F 36.8 °F 35.1 °F 86% 30.13 in 10.0 mi NW 3.5 mph - N/A   Clear
7:56 AM 41.0 °F 38.0 °F 32.0 °F 70% 30.17 in 10.0 mi Variable 4.6 mph - N/A   Scattered Clouds
8:56 AM 43.0 °F 38.2 °F 33.1 °F 68% 30.21 in 10.0 mi NW 8.1 mph - N/A   Overcast
9:56 AM 44.1 °F 40.8 °F 33.1 °F 65% 30.23 in 10.0 mi Variable 5.8 mph - N/A   Mostly Cloudy
10:56 AM 46.9 °F - 33.1 °F 59% 30.25 in 10.0 mi North 9.2 mph 18.4 mph 0.00 in   Scattered Clouds
11:56 AM 48.9 °F - 30.0 °F 48% 30.26 in 10.0 mi North 10.4 mph 18.4 mph N/A   Clear
12:56 PM 50.0 °F - 28.9 °F 44% 30.27 in 10.0 mi NNE 8.1 mph 19.6 mph N/A   Scattered Clouds
1:56 PM 50.0 °F - 30.9 °F 48% 30.28 in 10.0 mi North 8.1 mph 17.3 mph N/A   Partly Cloudy
2:56 PM 45.0 °F 40.6 °F 28.0 °F 52% 30.30 in 10.0 mi NW 8.1 mph 19.6 mph N/A   Mostly Cloudy
3:56 PM 45.0 °F 40.6 °F 28.0 °F 52% 30.31 in 10.0 mi NNW 8.1 mph - N/A   Overcast
4:56 PM 46.0 °F 42.5 °F 28.0 °F 50% 30.32 in 10.0 mi Variable 6.9 mph - N/A   Mostly Cloudy
5:56 PM 44.1 °F 41.5 °F 26.1 °F 49% 30.34 in 10.0 mi Variable 4.6 mph - N/A   Mostly Cloudy
6:56 PM 42.1 °F 39.2 °F 23.0 °F 47% 30.35 in 10.0 mi NNW 4.6 mph - N/A   Clear
7:56 PM 41.0 °F 38.0 °F 24.1 °F 51% 30.37 in 10.0 mi Variable 4.6 mph - N/A   Overcast
8:56 PM 41.0 °F 35.8 °F 19.0 °F 41% 30.39 in 10.0 mi NW 8.1 mph - N/A   Partly Cloudy
9:56 PM 39.0 °F 33.4 °F 21.9 °F 50% 30.40 in 10.0 mi WNW 8.1 mph - N/A   Clear
10:56 PM 37.0 °F 31.6 °F 25.0 °F 62% 30.42 in 10.0 mi Variable 6.9 mph - N/A   Clear
11:56 PM 37.0 °F 29.8 °F 25.0 °F 62% 30.40 in 10.0 mi WNW 10.4 mph 16.1 mph N/A   Clear